カタログに戻る

COSMOS 2448

GLONASS

運用中ナビゲーションMEO
NORAD 33468·PAYLOAD·🇷🇺 Russia

打ち上げ Dec 25, 2008 から Baikonur Cosmodrome

Loading…

次のパス (今後24時間)

TLE

最新Source: Space-Track

元期: Sep 10, 2026, 22:59 UTC

1 33468U 08067C   26253.95830602  .00000004  00000-0  00000-0 0  9990
2 33468  64.8717  66.3317 0003044 172.0358 188.0022  2.13116645137867

AllMySatでCOSMOS 2448をリアルタイム追跡

Download on the App Store